Simultaneous Nadir Overpasses (SNOs) Predictions

Prediction of SNOs between GOES-16 and METOP-C Satellite Orbit:

Table of predicted SNOs for the next 14.0 days since TLE Epoch: 11/2/2024
Index Date Time (GOES-16) GOES-16 Lat,Lon METOP-C Lat,Lon Distance(km) Time Diff (sec)
1 11/03/2024 14:49:03 -0.05, -75.21 0.77, -79.02 433.48 80
2 11/04/2024 14:25:43 -0.05, -75.21 -0.30, -74.02 136.19 80
3 11/06/2024 02:44:43 0.04, -75.20 -0.69, -78.62 388.61 80
4 11/07/2024 02:26:42 0.04, -75.20 0.40, -73.61 181.39 80
5 11/08/2024 14:45:33 -0.03, -75.23 0.60, -78.17 334.58 80
6 11/09/2024 14:22:12 -0.03, -75.23 -0.50, -73.17 235.83 80
7 11/11/2024 02:43:51 0.02, -75.23 -0.56, -77.75 287.58 80
8 11/12/2024 02:20:30 0.02, -75.24 0.56, -72.75 283.35 80
9 11/13/2024 14:42:00 -0.02, -75.28 0.41, -77.31 231.28 80
10 11/14/2024 14:18:39 -0.02, -75.29 -0.67, -72.30 339.95 80
11 11/16/2024 02:40:17 0.02, -75.29 -0.34, -76.89 182.34 80
